Temp
27 26 25 24 26 27 27 29 32 35 36 38 43 41 41 40 41 41 47 51 53 53 54 54 53 53 55 57 56 56 55 54 48 40 43 46 43 41 41 43 44 45 47
26 24 23 23 24 23 25 28 30 30 35 35 36 41 40 40 40 40 43 45 52 53 53 52 52 51 52 54 55 54 55 55 51 39 41 42 41 40 41 43 41 41 41
24 22 20 21 21 22 22 23 25 28 29 32 35 39 38 39 39 40 40 44 51 53 53 52 52 51 49 50 53 54 54 53 50 43 36 39 39 42 38 35 38 37 36
22 20 18 17 18 18 20 21 22 24 26 27 30 34 37 39 38 38 39 42 48 53 54 54 53 51 50 50 51 50 50 45 43 43 40 40 39 37 42 40 38 32 35
19 17 17 17 18 17 16 17 19 22 26 26 26 29 32 38 39 37 39 40 41 52 52 54 54 52 48 51 51 49 46 44 42 40 38 36 35 37 39 40 39 37 31
15 15 16 15 15 15 15 16 18 21 24 24 24 26 29 35 40 40 39 40 40 49 49 52 53 45 46 47 49 50 47 39 39 39 38 37 36 39 40 39 37 36 34
14 13 13 13 13 14 15 15 16 17 20 23 24 26 28 33 39 41 39 39 40 49 50 49 49 48 46 48 47 47 46 47 46 44 38 40 38 40 40 37 37 38 40
12 11 12 12 11 13 14 14 15 16 18 22 23 25 28 35 40 41 39 38 40 47 49 49 49 46 47 46 45 43 43 44 44 45 43 43 42 43 41 40 38 34 33
12 10 10 10 8 10 9 11 14 14 16 19 23 24 28 33 39 39 38 37 38 45 47 48 49 46 46 46 43 40 40 42 45 46 47 46 46 45 43 38 37 36 26
9 9 10 8 6 7 9 10 11 12 15 19 23 26 29 31 37 38 38 37 38 44 43 43 43 45 45 46 43 41 39 39 39 36 38 43 44 44 43 42 39 37 33
9 8 7 7 6 10 12 13 12 12 16 17 23 26 30 33 34 38 39 37 42 43 42 42 45 44 44 46 46 42 43 41 41 39 39 39 39 40 41 41 40 42 38
5 3 4 6 11 13 14 16 17 14 15 20 22 25 30 33 35 37 39 40 45 42 42 43 44 42 43 45 45 45 46 42 40 40 39 39 38 38 40 40 39 42 45
-1 0 4 9 10 12 12 15 21 19 19 25 27 29 31 35 36 38 39 41 43 41 43 43 42 41 42 44 45 43 41 40 39 39 39 40 41 42 40 39 33 30 28
-3 1 6 7 8 11 13 15 17 21 26 29 29 32 33 35 37 38 38 41 40 42 39 40 41 41 41 43 40 41 41 41 41 41 40 42 41 39 38 38 36 37 35
-1 4 4 6 7 8 11 11 15 19 22 26 32 32 32 33 36 39 39 39 39 41 38 38 38 38 38 38 39 39 40 39 38 39 40 38 38 37 36 37 38 36 37
-1 2 3 4 6 7 7 9 15 18 21 23 25 25 30 36 38 39 40 41 41 40 37 37 37 38 38 37 37 38 38 38 39 39 38 38 37 35 36 35 37 34 36
-2 1 2 3 4 4 4 5 3 9 14 18 21 21 26 33 36 39 40 40 40 40 37 37 37 37 38 38 38 38 37 39 39 39 39 38 37 36 36 35 36 35 35
-1 1 0 1 2 2 2 3 3 2 1 4 13 15 18 23 24 29 37 40 37 39 36 36 36 37 37 37 38 38 38 38 38 38 38 37 36 36 35 35 35 35 35
-2 -0 -1 -1 0 1 1 1 1 -0 -0 -0 7 9 7 15 17 17 17 13 20 18 21 33 35 37 37 38 38 37 37 37 37 37 37 36 36 35 35 35 35 35 35
-3 0 -1 -2 -2 -2 -2 -2 -2 -3 -3 -3 -1 4 2 3 1 1 3 5 6 8 10 11 14 17 30 36 36 37 36 36 36 36 36 36 36 36 36 35 35 34 33
-5 -4 -2 -3 -3 -3 -4 -4 -4 -4 -5 -5 -4 4 8 -2 -2 -2 -1 0 2 4 8 10 10 11 13 16 29 35 35 36 36 36 36 36 36 35 36 36 35 34 34
-6 -6 -5 -5 -4 -5 -5 -5 -5 -6 -6 -6 -6 -3 5 -4 -4 -4 -3 -2 -0 2 5 6 10 10 10 11 13 18 27 32 34 35 35 35 34 34 34 33 33 32 32
-7 -7 -6 -6 -6 -6 -6 -6 -7 -7 -7 -8 -7 -7 -6 -7 -6 -6 -4 -3 -2 -1 2 4 5 10 11 11 11 12 13 16 20 30 30 31 31 31 32 31 30 30 29
-9 -9 -9 -9 -8 -8 -8 -8 -7 -8 -8 -9 -9 -8 -8 -8 -8 -7 -6 -4 -3 -2 -1 0 3 5 10 11 12 11 12 14 18 20 22 22 23 26 26 26 27 28 28
-11 -11 -11 -12 -12 -11 -10 -9 -9 -9 -9 -9 -9 -9 -9 -8 -9 -8 -7 -6 -4 -4 -4 -2 -0 3 6 10 11 12 12 11 13 15 16 17 17 17 18 18 18 19 21
-12 -12 -13 -12 -12 -12 -12 -12 -11 -10 -11 -10 -10 -10 -9 -10 -9 -9 -8 -7 -6 -5 -4 -4 -2 2 5 8 10 13 14 14 10 11 12 12 12 12 13 13 14 15 14
MSLP
1014.44 1013.81 1012.98 1012.33 1011.33 1009.95 1008.80 1007.64 1006.45 1005.32 1004.05 1002.84 1000.92 1000.31 1000.42 1001.29 1001.21 1001.15 999.24 998.34 997.31 998.36 998.64 1000.13 1001.41 1002.86 1003.83 1004.73 1005.91 1007.39 1008.92 1010.20 1011.96 1014.33 1015.23 1015.90 1016.80 1017.41 1018.18 1018.75 1019.14 1019.75 1020.22
1013.81 1013.27 1012.44 1011.98 1010.80 1010.01 1008.40 1007.07 1006.16 1005.49 1004.13 1002.99 1002.46 1000.84 1000.81 1001.29 1000.88 999.75 999.39 998.96 997.10 997.29 998.12 999.33 1000.40 1001.81 1003.14 1004.17 1005.08 1006.66 1007.92 1009.25 1010.78 1013.40 1015.34 1016.07 1016.62 1017.23 1018.00 1018.81 1019.39 1019.75 1020.29
1013.42 1012.62 1011.96 1011.34 1010.57 1009.61 1008.49 1007.35 1006.26 1005.23 1004.40 1002.89 1002.08 1000.92 999.42 999.76 1000.05 999.52 999.36 998.32 995.89 996.08 997.13 998.32 999.51 1001.04 1002.43 1003.50 1004.85 1006.05 1007.17 1008.60 1010.09 1012.20 1014.36 1015.44 1016.56 1017.33 1018.25 1019.25 1019.95 1020.24 1020.56
1013.06 1012.15 1011.25 1010.69 1010.12 1009.36 1008.26 1007.03 1005.97 1005.23 1003.85 1002.83 1002.00 1001.13 1000.32 999.54 999.27 999.21 999.11 997.75 996.95 995.56 996.33 997.16 998.55 1000.01 1000.90 1002.75 1004.11 1005.24 1006.56 1008.10 1009.76 1011.38 1013.22 1014.66 1016.03 1017.27 1017.88 1018.60 1020.29 1020.70 1021.32
1012.79 1011.67 1010.58 1009.80 1009.18 1008.42 1007.68 1006.55 1005.21 1004.12 1003.43 1002.55 1001.36 1000.69 1000.00 998.82 997.92 997.91 997.37 997.54 996.80 994.88 995.69 996.28 997.34 998.94 1000.02 1001.43 1003.22 1004.49 1005.71 1007.14 1009.14 1010.83 1012.66 1014.30 1015.64 1016.83 1017.38 1018.40 1019.39 1020.76 1021.67
1012.62 1011.19 1010.09 1009.04 1008.27 1007.44 1006.56 1005.52 1004.19 1002.63 1001.97 1001.49 1000.24 999.41 998.51 997.60 997.35 997.31 998.04 997.53 996.54 994.42 994.73 995.69 996.52 998.45 999.85 1000.77 1002.10 1003.16 1004.55 1006.12 1007.97 1009.54 1011.24 1012.57 1014.37 1015.24 1016.08 1017.11 1018.46 1020.24 1021.47
1012.23 1010.95 1009.64 1008.46 1007.29 1006.47 1005.47 1004.53 1003.34 1002.06 1000.92 1000.12 999.12 998.38 997.56 997.12 996.50 996.09 996.48 996.36 995.67 993.93 993.80 994.86 995.81 997.44 999.03 1000.11 1001.59 1002.47 1003.80 1004.79 1005.78 1007.19 1009.26 1010.63 1012.16 1012.96 1014.58 1016.02 1016.72 1017.36 1018.04
1011.86 1010.35 1009.04 1007.94 1006.56 1005.47 1004.31 1003.24 1002.19 1001.39 1000.28 998.97 997.82 997.31 996.28 994.85 994.43 994.71 994.94 994.99 994.72 993.44 992.68 993.88 994.82 996.60 998.11 999.44 1001.09 1002.23 1003.59 1004.70 1005.62 1006.40 1007.68 1009.35 1010.19 1011.82 1012.97 1013.84 1015.20 1017.19 1018.45
1011.40 1009.90 1008.58 1007.39 1005.91 1004.62 1003.27 1001.97 1000.96 1000.12 999.38 998.47 996.70 995.97 995.08 994.13 993.49 993.46 993.98 994.21 993.49 992.18 991.77 993.24 994.19 995.61 997.01 998.23 999.99 1001.52 1003.41 1004.38 1005.04 1005.81 1006.62 1007.79 1008.93 1010.14 1011.93 1014.36 1015.95 1016.97 1019.08
1011.15 1009.67 1008.24 1006.83 1005.42 1003.78 1002.18 1000.73 999.67 998.93 997.79 997.04 995.46 994.27 993.99 993.18 992.50 992.38 992.80 992.89 992.08 991.32 991.36 992.57 993.41 994.54 996.21 997.08 998.32 1000.29 1002.26 1003.30 1004.56 1006.24 1007.17 1008.06 1008.75 1009.89 1010.81 1011.56 1013.14 1015.24 1016.81
1011.37 1009.69 1007.89 1006.15 1004.43 1002.52 1000.45 999.16 998.05 997.26 996.33 995.30 993.78 992.94 992.23 991.62 991.44 991.41 991.61 991.26 990.33 990.36 990.75 991.76 992.77 993.76 994.99 995.97 996.87 998.16 999.63 1002.04 1003.58 1004.98 1006.42 1007.62 1008.34 1009.44 1010.38 1011.08 1011.52 1012.17 1014.60
1011.23 1009.52 1007.42 1005.36 1003.28 1001.49 999.76 997.69 996.28 995.81 994.76 993.43 992.67 991.76 990.72 990.06 989.94 989.95 989.58 989.21 988.92 989.27 989.76 991.19 992.13 993.36 994.23 995.19 996.28 997.66 998.96 1000.72 1002.50 1004.12 1005.44 1006.45 1007.54 1008.37 1009.19 1010.17 1010.94 1011.33 1011.59
1011.22 1009.29 1007.05 1004.73 1003.13 1001.26 999.45 997.32 995.18 994.40 993.63 991.98 991.03 990.04 989.25 988.57 988.21 987.70 987.22 987.58 987.97 988.92 989.41 990.28 991.56 992.96 994.00 994.87 995.63 997.14 998.45 1000.18 1001.85 1002.84 1003.94 1004.67 1005.37 1006.57 1007.83 1009.30 1010.67 1011.75 1012.32
1011.34 1009.18 1007.03 1004.98 1002.84 1001.24 999.68 998.01 996.26 994.58 992.62 990.81 990.15 989.11 988.34 987.54 986.83 986.31 986.25 986.61 987.32 988.09 989.02 989.97 990.97 992.17 993.37 994.32 995.76 996.81 997.79 999.18 999.98 1001.02 1002.06 1003.92 1005.56 1006.27 1006.81 1008.11 1009.59 1010.67 1011.96
1011.44 1009.37 1007.40 1005.75 1003.68 1001.67 1000.17 998.59 996.94 995.58 993.98 991.51 989.71 988.64 987.80 986.98 986.20 985.64 985.62 985.93 986.56 987.28 988.45 989.51 990.80 991.80 992.89 994.09 995.14 996.28 997.37 998.59 999.64 1000.52 1001.66 1003.10 1004.22 1005.22 1006.28 1007.28 1008.31 1009.48 1009.89
1011.92 1010.01 1008.40 1006.58 1004.65 1002.88 1000.53 998.37 997.57 996.14 994.12 992.40 990.72 989.60 987.74 986.44 985.84 985.47 985.45 985.51 986.29 986.99 988.00 988.97 989.96 991.00 991.81 992.91 994.06 995.44 996.51 997.68 998.52 999.90 1000.58 1001.81 1002.64 1003.96 1005.30 1006.36 1007.24 1008.05 1008.64
1013.03 1011.14 1009.55 1007.77 1006.00 1004.28 1002.11 1000.13 997.99 995.04 994.89 993.20 991.50 990.35 988.63 986.46 985.87 985.38 985.32 985.47 986.05 986.97 987.78 988.75 989.40 990.23 991.12 991.90 993.01 994.21 995.04 996.56 997.46 998.95 999.44 1000.28 1001.53 1002.81 1004.05 1004.91 1005.51 1006.56 1007.31
1013.83 1012.24 1010.86 1009.24 1007.73 1006.08 1004.39 1002.54 1000.88 999.15 997.31 995.16 993.57 992.52 991.27 989.52 987.84 986.86 985.90 986.00 986.65 987.04 987.82 988.45 989.12 990.20 990.36 990.93 991.94 993.28 994.51 995.63 996.61 997.45 998.15 999.01 1000.10 1001.06 1002.32 1003.40 1004.05 1004.86 1006.01
1014.43 1012.91 1011.72 1010.60 1009.43 1007.89 1006.20 1004.41 1002.80 1001.51 1000.15 998.80 996.30 994.16 993.32 992.24 990.88 989.42 989.25 989.78 989.38 989.95 990.08 989.68 989.57 989.82 990.06 990.63 991.56 992.59 993.39 994.42 995.38 996.33 997.40 998.18 998.85 999.73 1000.39 1001.51 1002.34 1003.11 1004.03
1015.36 1014.14 1013.06 1011.82 1010.59 1009.13 1007.86 1006.54 1005.12 1003.80 1002.43 1000.95 999.23 997.77 996.55 993.93 993.10 993.93 993.85 993.87 993.42 993.32 993.34 992.64 992.39 991.98 991.29 990.91 991.17 991.96 992.81 993.87 994.70 995.40 996.24 997.08 997.75 998.30 998.88 999.77 1000.44 1001.50 1002.25
1016.51 1015.44 1014.39 1013.17 1012.16 1011.12 1010.02 1008.72 1007.42 1006.14 1004.97 1003.70 1002.70 1000.97 999.60 998.62 998.38 997.88 997.55 997.35 996.98 996.29 995.67 995.31 994.71 994.33 994.20 993.77 992.53 992.11 992.62 993.25 993.91 994.63 995.29 995.88 996.57 997.44 998.09 998.91 999.35 1000.24 1000.67
1017.45 1016.56 1015.68 1014.67 1013.86 1012.70 1011.70 1010.83 1009.68 1008.56 1007.48 1006.50 1005.42 1004.18 1003.04 1001.92 1001.42 1001.09 1000.52 1000.32 1000.14 999.18 998.41 997.51 996.71 996.42 996.77 996.50 995.35 994.42 993.76 993.79 994.12 994.46 995.04 995.56 996.22 996.97 997.66 998.52 999.22 999.76 1000.61
1018.36 1017.54 1016.78 1016.00 1015.36 1014.47 1013.35 1012.56 1011.85 1010.77 1009.65 1008.76 1007.62 1006.42 1005.44 1004.72 1004.41 1003.47 1002.94 1002.77 1002.23 1001.11 1000.41 999.39 998.75 998.24 998.04 997.89 997.28 997.04 996.58 996.21 995.56 994.81 995.36 995.86 996.48 997.16 997.34 998.16 998.83 999.90 1000.46
1019.23 1018.64 1017.93 1017.24 1016.49 1015.80 1015.23 1014.42 1013.62 1012.63 1011.72 1010.82 1009.78 1008.91 1008.28 1007.89 1007.60 1006.83 1006.19 1005.76 1004.75 1003.75 1002.52 1001.77 1001.41 1001.00 1000.32 999.54 999.11 998.83 998.33 997.85 997.29 997.13 996.99 997.21 997.44 997.64 997.97 998.70 999.43 1000.00 1000.85
1020.07 1019.55 1018.95 1018.32 1017.71 1017.13 1016.40 1015.68 1014.79 1013.95 1013.25 1012.68 1012.13 1011.70 1011.11 1010.42 1009.80 1009.11 1008.47 1007.32 1005.69 1004.96 1004.75 1004.53 1004.11 1003.06 1002.18 1001.47 1000.73 1000.40 1000.06 999.58 999.46 999.10 998.73 998.66 999.04 999.28 999.70 1000.32 1000.86 1001.44 1002.06
1020.84 1020.44 1020.00 1019.39 1018.74 1018.15 1017.67 1016.95 1016.37 1015.72 1014.88 1014.27 1013.88 1013.58 1013.03 1012.36 1011.83 1011.20 1010.19 1009.23 1008.37 1007.60 1007.07 1006.56 1005.94 1004.87 1004.13 1003.66 1002.88 1001.95 1001.52 1001.31 1001.21 1001.00 1000.93 1001.07 1001.37 1001.63 1001.70 1002.05 1002.63 1003.32 1003.68
Wind_Speed
18 18 20 18 20 18 17 19 17 18 19 18 13 7 4 8 9 12 18 14 20 18 21 23 22 18 13 13 13 13 14 12 11 2 3 6 5 8 6 5 6 6 6
19 20 18 22 18 21 19 19 16 18 18 15 16 11 8 8 8 11 16 10 19 25 21 23 24 15 17 14 13 17 16 15 11 11 4 6 4 6 6 9 6 5 6
21 20 20 20 19 20 20 23 19 19 16 19 16 16 6 7 6 8 13 15 18 21 24 23 23 22 20 14 15 16 14 12 11 10 6 3 4 6 6 4 5 5 3
22 21 21 21 20 19 18 21 20 19 16 18 17 16 15 8 6 10 12 16 18 18 24 24 23 23 23 19 16 15 14 12 11 11 8 10 7 4 7 12 7 3 4
23 23 22 21 21 19 20 19 20 20 14 17 19 17 18 14 7 9 10 15 17 20 19 23 24 24 29 24 15 15 14 12 13 11 10 8 8 10 13 8 8 8 2
23 23 23 21 21 21 19 18 21 20 15 16 18 18 17 13 19 17 17 13 15 22 19 23 22 24 24 29 29 25 20 16 14 12 10 13 14 16 11 13 12 10 6
22 22 21 22 20 20 20 19 19 19 19 16 18 18 18 18 28 22 20 12 16 19 22 20 19 16 22 22 24 24 22 28 28 18 20 19 18 19 17 17 18 16 10
22 21 20 22 23 22 21 20 19 16 17 17 17 17 18 16 23 21 19 12 15 21 22 23 22 20 22 23 21 18 17 18 19 14 19 15 11 17 16 11 13 7 6
22 23 23 22 23 23 21 21 18 17 16 16 16 17 18 20 20 18 17 12 13 19 19 20 23 21 29 34 23 20 17 14 15 19 23 25 26 32 23 11 11 12 3
24 24 23 23 22 22 21 21 17 16 17 14 17 17 18 16 18 21 20 10 14 13 16 18 25 24 31 37 25 21 19 17 16 8 7 14 21 24 31 21 18 14 6
23 23 24 22 23 21 20 17 16 15 15 16 15 15 15 14 13 23 26 12 12 14 13 13 15 30 32 35 31 23 23 18 20 15 12 11 11 16 16 14 17 18 14
23 23 23 23 18 17 19 17 14 13 14 16 12 13 13 14 18 24 26 24 18 15 16 13 15 26 33 36 28 29 29 24 14 13 13 12 12 13 14 14 16 15 15
23 22 23 22 20 18 18 17 14 10 11 12 10 11 10 10 11 22 22 24 24 14 12 17 21 26 29 30 35 28 24 15 14 15 14 14 15 15 16 14 6 5 4
22 21 21 21 22 18 14 13 12 12 11 9 10 10 10 7 8 7 8 14 20 18 17 15 20 24 25 22 16 18 13 14 16 16 13 12 10 13 14 13 11 13 8
20 19 20 17 19 19 15 14 13 11 15 15 7 7 7 7 7 8 9 11 10 13 14 11 10 13 13 12 12 14 13 11 11 10 12 13 12 10 11 11 10 12 13
19 16 17 16 16 16 16 15 20 25 26 27 28 21 10 12 14 13 14 16 18 23 11 12 12 12 14 14 14 13 14 15 14 13 13 13 14 13 13 11 10 12 14
18 17 15 17 15 16 16 16 19 23 28 29 32 31 32 28 14 14 13 17 23 24 10 11 12 13 12 14 14 14 14 13 15 14 14 15 13 13 17 13 14 13 14
16 20 14 15 15 15 15 15 14 15 17 19 24 26 30 30 33 25 4 15 12 13 7 10 10 10 11 12 12 12 11 12 13 13 14 15 15 15 14 15 15 15 14
14 13 14 13 13 16 14 14 14 15 15 15 14 21 25 27 29 36 33 13 9 10 9 3 2 7 8 10 11 11 12 12 13 13 13 13 15 15 15 15 16 22 20
13 20 17 12 13 14 14 14 14 14 14 15 16 18 17 19 20 17 16 14 13 11 10 10 10 10 7 5 9 10 10 11 13 13 13 13 13 14 15 17 16 17 17
10 11 18 12 12 13 13 14 14 14 14 14 15 20 35 16 15 15 14 14 13 13 12 11 11 11 11 10 7 6 8 9 10 11 11 11 12 13 13 12 12 12 14
10 10 11 11 11 13 13 13 14 14 15 15 14 16 32 16 15 14 15 14 13 12 11 12 11 12 11 10 11 10 7 3 5 8 8 8 9 10 9 8 8 9 9
10 11 11 10 11 14 12 13 13 14 14 14 14 15 16 15 15 15 15 14 13 13 13 13 14 13 12 12 12 11 10 9 7 4 5 5 6 6 7 8 8 8 8
9 10 10 10 10 10 11 11 11 15 14 14 14 14 14 14 14 15 14 13 12 12 13 14 14 19 15 14 13 12 12 11 9 9 9 7 6 6 6 6 5 7 7
8 9 9 9 9 10 11 11 11 12 12 12 12 12 12 12 13 13 12 12 13 14 15 14 13 18 20 23 22 22 21 23 18 15 10 12 13 13 10 8 8 8 8
6 7 7 8 8 9 9 10 10 10 10 10 10 10 10 10 11 11 11 13 11 12 14 11 15 19 20 18 21 23 24 23 20 21 13 12 11 10 10 11 13 8 10
Wind_Direction
314 318 308 312 299 297 300 298 300 306 311 324 264 222 226 289 292 293 266 272 178 184 181 175 170 164 170 169 162 173 178 169 164 58 101 151 132 139 140 130 139 145 154
317 313 314 311 307 299 291 292 303 305 298 313 312 250 205 222 280 309 297 262 225 187 178 178 174 167 175 171 166 179 178 175 158 143 141 159 140 153 144 145 142 126 133
316 312 312 308 307 305 304 298 298 294 296 297 296 293 241 237 265 275 300 270 220 182 180 175 172 173 171 172 176 178 175 170 150 146 143 140 111 159 120 79 125 106 94
315 312 309 307 302 295 294 297 295 287 286 289 286 291 284 246 235 277 272 269 268 184 184 175 177 180 172 171 178 173 165 147 145 151 142 154 149 133 152 146 134 72 126
316 311 307 306 301 297 295 287 290 278 271 279 281 273 274 275 258 268 292 288 286 197 192 182 181 182 179 175 177 171 156 150 151 150 151 145 147 156 165 165 152 147 48
310 311 307 306 303 298 295 288 289 291 271 269 272 272 266 264 264 249 261 277 274 212 184 189 180 178 180 175 184 172 164 151 155 152 161 162 168 179 168 160 151 151 165
309 309 306 305 301 300 295 291 287 288 289 266 267 270 263 254 254 251 255 267 254 229 186 185 180 181 181 176 178 168 166 168 169 167 166 178 172 175 168 170 173 174 175
311 310 311 310 302 299 293 287 282 279 278 274 262 260 267 263 246 245 251 264 252 244 181 183 178 171 177 171 172 170 174 176 175 168 168 176 169 171 176 178 171 122 53
315 318 313 312 306 301 294 288 282 279 274 273 261 258 250 249 243 249 250 257 253 226 178 182 180 173 176 168 167 171 176 182 176 171 175 172 167 167 163 135 165 157 124
324 318 315 311 303 296 289 285 280 273 271 269 260 259 244 258 249 253 248 249 241 203 172 178 182 175 176 171 169 168 173 178 158 137 140 155 158 169 167 174 164 174 152
318 318 315 309 300 290 287 276 270 267 266 267 257 256 250 237 245 252 243 246 218 191 174 174 181 178 175 177 174 175 183 160 168 161 158 164 162 169 177 179 174 170 173
323 319 315 312 313 309 305 296 273 257 263 263 248 254 254 249 246 244 245 243 201 187 180 178 176 178 178 178 174 182 172 161 165 169 168 174 173 173 179 180 184 192 199
323 321 321 320 321 320 318 313 310 252 256 261 251 247 252 244 239 243 238 230 193 180 175 170 164 170 180 183 181 177 165 164 172 177 187 189 184 179 173 181 157 114 90
321 326 328 329 327 329 325 326 323 326 295 252 249 244 251 245 254 234 218 204 188 180 167 163 169 172 176 178 177 164 175 177 181 184 183 180 181 175 178 175 179 180 175
328 331 335 331 332 329 333 330 330 333 327 336 296 255 246 256 250 210 196 192 174 174 156 153 165 169 170 172 174 172 174 173 179 180 177 175 177 174 181 179 182 185 200
331 338 338 331 336 333 332 334 341 347 347 0 7 5 331 277 281 207 197 174 167 155 149 167 170 177 176 170 171 176 176 181 181 181 173 177 176 174 178 177 181 191 198
334 338 339 338 340 340 341 345 343 343 356 3 7 9 7 2 290 204 192 168 157 157 163 173 171 175 179 171 172 177 178 186 174 185 181 176 180 180 182 185 190 192 201
337 346 345 342 342 343 344 347 348 353 353 347 1 12 9 21 32 30 278 162 162 170 166 171 165 179 174 168 168 177 176 176 182 183 185 183 184 182 182 192 193 194 200
345 349 350 348 346 349 350 352 359 0 360 354 354 12 9 14 36 40 37 39 28 32 360 48 119 172 172 168 169 174 175 177 183 182 189 190 188 184 191 195 197 197 194
349 353 357 353 352 357 358 1 4 4 5 6 5 16 5 13 30 26 28 29 32 33 21 26 20 16 358 187 167 169 171 175 182 186 190 192 192 192 196 194 194 195 197
349 351 358 1 2 1 360 2 5 10 10 11 13 16 26 27 28 29 28 25 23 26 26 29 30 29 16 2 347 158 169 177 185 190 193 192 190 199 199 203 193 204 196
352 356 359 5 357 3 8 4 6 9 13 12 10 15 23 27 26 26 29 26 18 22 26 28 35 38 28 16 12 13 33 88 178 186 190 184 182 186 184 188 187 183 189
355 358 3 4 5 4 7 11 10 9 11 11 13 16 16 19 16 19 22 20 16 19 19 30 31 33 34 27 28 24 24 15 358 60 112 125 142 162 156 158 159 164 167
359 359 1 2 4 8 6 7 7 14 15 13 13 15 16 17 14 14 15 10 13 20 24 26 28 29 27 36 32 30 28 20 24 35 56 70 69 78 88 99 126 153 165
360 359 359 0 2 1 358 2 7 9 13 13 14 12 11 13 12 11 10 7 16 19 20 19 17 23 26 32 39 39 37 37 38 38 46 59 65 67 73 73 77 74 80
0 1 358 355 357 1 1 0 1 2 7 5 11 8 7 12 11 6 5 10 12 17 17 14 11 21 28 32 30 40 44 45 42 43 47 52 58 59 65 72 75 77 80